Regional Weather Roundup
Issued by NWS Burlington, VT

Home | Current Version | Previous Version | Text Only | Print | Product List | Glossary On
Versions: 1 2 3 4 5 6 7 8 9 10 11 12 13 14 15 16 17 18 19 20 21 22 23 24 25 26 27 28 29 30 31 32 33 34 35 36 37 38 39 40 41 42 43 44 45 46 47 48 49 50
000
ASUS41 KBTV 301010
RWRBTV
VERMONT REGIONAL WEATHER ROUNDUP
NATIONAL WEATHER SERVICE BURLINGTON VT
600 AM EDT TUE SEP 30 2014

NOTE: "FAIR" INDICATES FEW OR NO CLOUDS BELOW 12,000 FEET WITH NO
SIGNIFICANT WEATHER AND/OR OBSTRUCTIONS TO VISIBILITY.

* THESE REPORTS ARE NOT UNDER NWS QUALITY CONTROL AND/OR DO NOT
  REPORT WEATHER SUCH AS PRECIPITATION AND FOG.

VTZ001>019-301100-
_____VERMONT_____


CITY           SKY/WX    TMP DP  RH WIND       PRES   REMARKS
BURLINGTON     MOSUNNY   49  47  93 CALM      29.98S
MONTPELIER     CLOUDY    56  53  90 S6        30.04S
MORRISVILLE    CLOUDY    58  53  84 CALM      30.01R
ST. JOHNSBURY*   N/A     57  54  89 MISG      30.00R
MIDDLEBURY*    CLOUDY    51  51 100 CALM      29.97S
RUTLAND*       PTSUNNY   55  52  88 SE12G17   29.99R
SPRINGFIELD    CLOUDY    56  54  93 CALM      30.02S
HIGHGATE*      FAIR      43  43  99 CALM      29.98S
NEWPORT*       CLOUDY   N/A N/A N/A SE8       30.00S
BENNINGTON     MOSUNNY   60  53  77 SE5       29.97R
SUTTON*          N/A     55 N/A N/A MISG        N/A

_____LAKE CHAMPLAIN_____


CITY           SKY/WX    TMP DP  RH WIND       PRES   REMARKS
COLCHESTER RF*   N/A     52  50  93 N6          N/A
DIAMOND ISL*     N/A     54  50  87 N6          N/A

$$

NYZ007-026>031-035-052-083-301100-
_____NORTHERN NEW YORK_____


CITY           SKY/WX    TMP DP  RH WIND       PRES   REMARKS
PLATTSBURGH    CLOUDY    46  44  93 CALM      29.98R
SARANAC LAKE   FOG       41  41 100 CALM      29.95S VSB 1/2
MASSENA        CLOUDY    48  47  96 E10       29.98R FOG
OGDENSBURG*    CLOUDY    48  48 100 NE7       29.95R FOG
POTSDAM*       CLOUDY    46  46 100 E7        29.96R FOG
WATERTOWN      PTSUNNY   54  48  80 N7        29.90R
FT DRUM        SUNNY     57  53  88 E6        29.90R
ALBANY         MOSUNNY   55  54  96 N3        29.96R FOG
GLENS FALLS    CLOUDY    58  55  90 NE3       29.97R

$$
NHZ002-005-011-301100-
_____NEW HAMPSHIRE_____


CITY           SKY/WX    TMP DP  RH WIND       PRES   REMARKS
LEBANON        CLOUDY    59  52  77 NE3       30.01S
KEENE          CLOUDY    57  46  67 N3        30.02R
MT WASHINGTON  CLOUDY    45  39  81 W10         N/A
PLYMOUTH       CLOUDY    55  55 100 CALM      30.03S
WHITEFIELD     PTSUNNY   47  45  93 CALM      30.03R

$$

_____REGIONAL QUEBEC LOCATIONS_____


CITY           SKY/WX    TMP DP  RH WIND       PRES   REMARKS
MONTREAL       CLOUDY    50  46  87 N9        29.99S
QUEBEC CITY    LGT RAIN  46  43  87 NE15G23   30.07R
SHERBROOKE     PTSUNNY   48  48 100 N2        30.00R

_____REGIONAL ONTARIO LOCATIONS_____


CITY           SKY/WX    TMP DP  RH WIND       PRES   REMARKS
OTTAWA         CLOUDY    46  46 100 E8        29.98R FOG

______KEY______
VSB  - VISIBILITY IN MILES
WCI  - WIND CHILL INDEX
HX   - HEAT INDEX
$$



USA.gov is the U.S. government's official web portal to all federal, state and local government web resources and services.